Location: *
(49.4547°N, 7.9131°E)
Time: 10:47:03
(UTC+00:00)

Meteor 1-24 Rocket - Pass Details

Date: 22 September 2019
Orbit: 791 x 926 km, 81.2° (Epoch: 13 October)

Event Time Altitude Azimuth Distance (km) Brightness Sun altitude
Rises 18:50:32 0° 350° (N) 3,465 7.3 -14.2°
Reaches altitude 10° 18:53:00 10° 355° (N) 2,544 6.5 -14.5°
Maximum altitude 18:58:42 54° 73° (ENE) 1,082 4.0 -15.4°
Enters shadow 19:03:13 17° 146° (SSE) 2,133 5.3 -16.1°
